Theta_e
310 311 311 311 311 311 311 311 311 312 312 312 310 309 310 309 310 301 297 299 297 292 292 297 298 293 293 291 287 291 290 290 287 282 282 282 281 285 283 286 285 284 281 279 280 279 280 296 296 288 289 293 295 295
310 310 310 311 311 311 311 311 311 312 312 311 310 309 309 309 310 304 295 299 301 297 293 298 300 301 299 298 292 291 289 289 290 284 284 283 283 282 282 279 288 282 286 284 284 283 290 295 295 297 297 296 295 296
310 310 310 310 310 311 310 310 311 311 311 311 310 310 309 309 310 305 295 296 295 290 291 290 293 299 300 301 301 291 291 295 293 291 286 282 282 284 277 281 284 287 293 287 287 289 293 295 298 299 300 298 299 298
310 310 310 310 310 310 310 310 311 311 311 311 310 309 309 310 311 308 299 296 295 294 288 288 299 295 300 299 299 299 295 295 293 290 288 281 280 287 282 284 283 287 288 287 287 291 292 295 298 299 300 300 300 300
309 310 310 310 310 310 310 310 311 311 311 310 309 309 310 310 309 302 297 297 297 295 286 288 293 296 297 297 298 297 295 292 289 286 284 287 286 284 284 284 283 288 286 282 282 290 290 292 298 300 299 299 298 296
308 309 309 310 310 310 310 310 310 311 310 310 309 310 310 309 303 298 291 295 296 300 292 283 290 292 295 297 296 295 294 291 290 287 286 287 290 285 277 280 288 289 290 291 288 293 294 296 299 301 299 297 297 296
308 308 309 310 310 310 310 310 310 310 309 309 309 310 309 306 298 295 291 296 302 300 292 283 283 291 295 296 294 293 293 291 294 290 285 286 287 286 280 281 288 291 292 293 294 293 294 296 295 299 299 297 297 295
308 308 308 309 310 310 310 310 310 309 309 309 309 309 307 305 301 296 296 303 301 295 290 280 283 286 294 290 289 291 289 291 289 288 287 286 287 283 279 287 290 292 293 293 294 294 294 296 296 295 295 294 293 292
307 308 308 309 310 309 309 309 309 308 308 309 308 306 301 296 293 292 305 303 296 291 281 284 280 280 294 293 295 294 293 285 289 285 285 286 283 280 287 289 290 292 291 295 298 298 297 295 294 294 294 295 294 293
307 308 308 309 309 309 309 308 308 308 308 306 300 294 289 293 301 303 293 288 287 287 285 281 284 281 287 291 293 293 292 287 285 285 288 283 284 290 291 292 293 294 294 298 297 293 294 293 294 296 296 295 294 291
307 308 309 309 309 308 308 308 308 307 304 297 293 292 296 304 292 289 287 284 283 281 284 284 284 281 287 281 283 288 288 287 284 284 282 281 281 289 295 296 295 296 298 299 298 297 298 298 297 296 295 294 293 292
307 308 309 309 308 307 307 308 306 300 297 297 296 300 297 292 287 286 285 287 282 282 286 285 285 285 285 288 283 284 283 284 279 287 282 280 286 293 297 299 300 299 301 298 299 298 299 298 297 294 292 292 291 292
308 308 308 307 307 307 307 306 303 302 301 299 295 292 289 287 282 281 280 281 280 286 288 288 287 287 288 287 279 281 282 281 287 277 279 283 289 296 296 299 299 301 301 299 298 299 299 296 295 293 293 294 293 293
307 307 306 306 306 307 305 302 302 300 297 290 287 279 281 281 282 282 282 283 288 289 289 290 290 287 286 284 282 281 283 283 278 278 280 285 292 296 299 300 301 301 301 299 299 297 297 296 297 298 296 294 293 292
306 306 306 306 307 305 304 302 301 297 294 289 287 277 282 285 285 286 287 287 291 290 290 287 286 285 284 283 285 284 281 277 277 276 282 289 294 298 298 300 300 300 299 299 298 297 296 298 297 295 294 293 294 293
306 305 304 305 305 304 302 300 296 296 293 290 288 284 285 284 285 286 288 289 290 289 288 286 279 279 283 284 282 281 279 274 276 280 287 292 294 295 299 301 301 301 299 298 297 297 296 296 294 293 293 293 294 294
301 298 302 302 302 301 300 294 293 291 288 288 284 285 285 286 285 286 287 288 291 289 280 282 277 280 284 282 281 285 278 281 280 287 292 293 293 296 300 302 302 300 297 295 297 296 295 295 294 293 292 292 293 294
297 300 302 301 298 297 295 293 290 288 285 285 282 284 287 289 286 286 288 290 289 287 284 280 283 281 279 280 278 284 288 290 292 293 294 296 299 302 302 299 300 298 296 298 296 295 295 293 292 293 292 292 293 293
297 299 300 301 297 292 289 289 290 284 286 286 285 286 287 287 288 289 289 290 290 289 287 279 282 280 281 286 286 290 293 294 293 295 296 299 302 302 301 300 299 296 295 295 294 293 293 293 293 293 293 292 291 292
300 301 300 299 298 291 288 286 289 285 283 286 286 286 285 286 287 289 289 290 289 288 285 284 283 286 288 292 295 295 296 297 296 296 297 300 302 300 301 300 295 298 296 294 294 292 291 290 291 293 293 292 291 292
295 296 297 293 292 292 289 285 285 285 285 284 286 285 285 287 286 287 287 289 287 286 286 289 291 293 297 296 298 298 298 297 296 298 297 295 295 297 298 299 299 294 293 292 291 291 291 291 292 292 290 291 292 293
290 298 291 294 293 294 289 288 285 285 284 285 285 286 284 284 286 287 288 288 288 289 289 289 291 293 294 295 297 298 298 298 301 300 296 295 292 293 293 296 295 293 293 294 294 292 292 293 292 290 290 291 291 292
296 295 293 294 290 283 283 290 285 285 282 284 285 284 285 286 288 291 287 287 288 292 294 294 296 297 296 297 298 298 299 297 298 299 298 296 297 294 294 296 297 296 293 294 294 295 293 290 291 292 292 292 292 293
298 293 290 287 287 283 290 288 290 288 287 283 280 283 286 288 291 288 288 288 292 294 294 295 295 294 294 294 293 295 297 299 297 296 298 299 296 296 297 297 296 296 297 297 294 294 293 292 291 293 294 293 291 291
282 282 283 274 286 286 287 287 287 284 286 288 288 287 287 288 286 288 286 289 294 294 295 296 295 298 298 297 294 295 299 299 297 297 297 295 295 296 298 297 297 299 297 295 297 293 292 292 293 295 293 292 291 292
282 285 284 286 286 287 288 286 288 288 288 288 289 288 288 282 284 282 287 294 293 297 298 295 296 298 298 298 297 297 298 299 298 296 294 296 298 297 295 297 296 297 298 296 296 294 293 293 292 292 291 291 289 293
280 286 288 291 292 291 286 288 287 286 289 289 288 289 289 284 285 291 296 298 294 299 300 298 301 300 300 298 300 301 301 300 300 298 297 298 298 298 300 299 298 296 301 301 300 298 295 294 295 295 294 294 294 294
288 289 287 291 288 288 289 288 288 287 288 290 287 287 289 290 289 294 295 297 298 302 301 302 304 303 301 301 300 298 297 298 298 297 298 299 299 298 298 299 300 290 299 300 300 300 300 298 297 296 295 293 294 294
288 290 290 288 289 290 290 291 291 292 295 291 288 289 290 295 298 298 298 297 301 302 301 301 301 302 299 297 299 301 300 297 295 293 292 293 294 297 298 298 295 297 297 297 289 294 299 296 296 297 298 297 295 295
290 292 292 293 292 292 294 296 294 294 293 293 292 294 294 297 299 300 299 300 300 300 301 299 299 300 298 296 297 299 299 299 298 296 293 293 294 295 297 296 298 297 296 296 295 294 288 293 292 297 297 297 297 295
294 293 293 293 292 290 295 299 298 298 295 295 296 293 293 295 298 299 299 300 301 301 298 297 300 301 299 297 296 295 294 297 299 299 300 297 297 297 298 298 298 298 297 297 296 294 293 293 295 299 297 296 297 296
293 294 294 291 289 296 298 294 293 292 294 294 293 294 294 292 291 296 300 300 300 299 293 298 299 298 299 298 298 297 291 295 295 298 300 299 299 299 299 300 300 300 299 298 297 295 295 296 298 297 295 295 295 295
293 296 295 293 292 291 292 291 290 289 289 288 290 292 292 292 291 295 300 301 300 300 299 299 299 300 299 298 297 295 292 293 289 285 286 286 286 289 295 297 300 300 299 299 299 299 298 297 296 295 294 293 293 294
Wind_Speed
22 21 20 18 17 16 14 13 11 10 9 8 7 6 6 3 1 3 3 3 4 3 7 6 3 3 3 1 3 4 4 4 3 3 3 3 3 3 3 3 2 5 5 4 2 1 8 2 4 3 5 3 5 5
22 22 21 20 18 17 15 13 13 11 10 9 9 8 7 5 3 5 1 2 1 3 7 4 9 12 12 9 3 2 3 2 4 4 1 1 1 1 1 3 3 2 6 5 8 7 5 3 6 3 3 3 3 5
21 21 21 20 19 18 16 14 14 12 11 10 9 9 8 6 6 7 2 2 3 2 6 2 4 5 6 14 9 4 2 3 1 4 4 2 2 4 2 5 2 3 1 2 3 3 4 6 5 5 6 6 4 3
20 20 20 20 19 18 16 16 15 13 12 11 9 9 8 7 7 8 2 1 1 2 2 8 3 5 3 6 12 9 3 3 4 3 2 3 3 4 3 4 4 5 4 2 4 7 6 6 7 6 5 6 8 4
20 20 20 20 20 19 17 17 14 13 12 12 11 10 5 7 8 4 1 3 3 1 3 6 9 7 6 6 10 7 6 4 2 2 2 3 2 2 2 2 4 6 8 5 6 8 5 7 5 3 4 2 4 8
20 21 21 21 21 20 19 17 15 14 14 13 12 9 8 8 8 2 4 2 3 3 2 5 5 5 6 2 9 7 5 3 3 4 3 3 4 4 1 4 7 5 4 7 5 4 7 8 3 3 6 5 7 3
21 21 21 22 23 21 19 17 14 14 14 13 10 9 10 11 3 3 4 3 1 0 0 5 6 5 4 4 2 3 2 2 3 2 2 3 3 5 2 7 6 7 8 7 7 3 3 4 4 5 6 5 9 6
21 21 22 23 23 21 19 17 17 17 14 12 10 12 11 8 1 2 4 9 4 2 2 1 6 6 2 2 1 1 2 2 1 3 1 3 1 2 5 9 7 7 7 8 11 9 5 4 7 7 6 6 7 5
19 21 22 23 23 21 20 20 19 17 14 13 16 15 4 1 2 4 2 10 3 4 2 1 2 4 5 1 2 2 2 1 1 3 3 4 2 6 8 8 7 8 4 2 5 8 9 7 8 8 7 6 4 4
19 21 23 23 23 22 22 22 20 18 19 20 4 2 2 4 5 6 5 4 4 2 2 3 1 4 2 3 1 2 2 3 1 5 3 3 5 9 10 9 8 8 6 7 6 4 5 5 6 5 3 4 3 5
20 21 23 24 25 25 25 23 23 25 14 2 3 2 2 6 4 3 2 2 1 2 3 5 5 3 2 2 3 3 2 2 2 5 4 2 4 4 8 7 7 10 7 8 1 4 7 9 9 6 4 3 3 2
20 22 24 26 28 28 26 27 28 7 4 6 5 4 3 3 3 2 3 2 4 5 3 4 5 5 3 2 3 1 2 1 6 0 1 3 5 4 4 5 7 2 7 9 9 8 11 9 7 6 5 3 1 4
20 23 28 30 30 27 27 29 15 15 9 2 2 4 4 2 3 6 6 3 3 4 3 2 1 2 1 3 3 3 1 5 1 2 4 5 3 3 5 4 6 7 9 9 8 9 10 8 7 6 4 3 5 5
27 29 29 28 27 29 29 23 19 10 3 3 4 4 5 4 5 6 5 4 5 4 3 2 3 3 1 2 2 2 4 2 3 2 4 3 4 1 1 2 2 1 5 7 7 9 10 7 4 5 5 4 5 4
26 25 25 25 29 30 23 18 10 3 2 3 4 4 5 4 3 3 4 1 1 4 3 2 3 2 1 1 3 0 2 4 4 4 3 4 9 3 1 3 4 2 5 8 7 7 7 6 5 4 4 4 5 4
26 22 16 28 28 24 19 10 3 2 2 2 2 2 2 3 2 2 2 2 1 3 3 3 2 2 3 2 2 5 3 5 5 4 4 4 8 4 4 7 6 4 5 5 6 7 6 6 6 3 4 4 4 4
16 5 24 26 24 20 11 4 2 2 1 1 2 1 2 1 2 3 4 3 3 4 3 3 3 6 0 2 3 3 5 4 3 5 3 5 7 2 4 6 6 5 6 6 5 6 6 4 3 4 3 3 4 4
10 17 25 23 13 6 2 3 2 2 3 3 1 3 2 2 2 0 2 2 3 3 4 4 4 1 3 3 3 3 2 4 4 5 5 7 4 6 7 3 4 5 6 5 6 5 5 5 3 3 3 3 3 2
13 13 19 11 4 4 4 1 2 2 3 2 2 1 1 1 1 1 3 3 2 3 5 3 2 3 4 4 3 3 2 5 3 4 4 4 3 5 3 3 4 6 7 5 5 4 4 5 4 4 3 3 3 3
19 14 8 4 2 3 4 1 2 2 1 2 1 2 1 2 2 2 3 3 3 3 2 2 4 4 3 3 4 4 5 5 4 4 6 3 3 4 4 4 4 5 5 5 4 3 1 0 1 2 3 4 3 4
8 1 4 3 3 3 3 3 1 3 1 1 2 1 1 1 2 2 2 2 2 3 3 4 4 4 6 2 4 6 5 4 3 2 3 2 1 2 3 3 5 4 3 3 3 2 2 2 1 3 3 3 4 2
1 2 3 3 3 1 2 2 4 1 2 2 2 1 1 0 1 3 3 2 3 4 4 4 3 3 3 4 5 7 6 3 4 4 1 1 2 2 2 4 4 3 3 3 3 3 2 1 1 2 4 3 3 3
3 3 2 2 2 4 2 2 3 1 2 2 2 2 2 1 2 1 1 2 3 2 2 2 3 2 3 3 2 2 2 5 4 4 3 2 2 3 3 3 4 4 3 2 2 3 2 1 1 3 3 3 2 2
2 0 1 1 2 2 2 1 1 1 1 1 1 1 1 2 3 2 1 1 2 3 2 3 2 3 3 2 2 3 3 3 4 2 3 4 3 2 3 3 3 4 4 3 3 3 1 1 0 3 4 5 4 3
3 4 5 3 1 3 3 3 2 1 1 1 1 2 1 2 1 0 1 3 3 3 3 3 3 2 3 1 2 3 3 4 4 4 2 3 3 3 2 2 2 3 3 4 2 2 2 1 1 3 2 4 6 6
1 3 4 4 2 3 4 4 4 4 3 3 3 1 1 2 1 3 2 1 2 2 3 2 2 3 1 1 2 1 0 3 4 3 2 4 5 6 5 4 2 1 3 2 3 3 2 0 1 4 2 4 6 6
2 3 4 4 2 1 3 0 2 3 4 5 4 4 2 1 2 2 1 1 2 3 2 3 1 3 1 3 3 3 2 3 4 4 4 4 3 4 5 5 4 4 3 4 4 3 3 1 2 4 3 3 6 6
3 2 4 3 2 0 2 2 2 2 1 2 4 3 3 1 1 0 1 3 3 4 4 2 1 2 3 3 3 2 4 4 5 6 5 4 3 2 4 2 1 5 3 2 3 4 4 2 2 2 2 2 5 5
3 2 3 2 2 2 1 1 2 1 0 2 3 2 2 2 1 2 2 3 4 3 3 3 4 4 3 3 4 4 3 4 6 6 5 3 1 2 1 2 2 2 2 3 5 3 5 3 2 4 3 2 5 5
4 3 2 2 1 2 1 2 1 1 2 2 3 2 2 1 2 2 2 3 3 2 3 3 3 2 2 4 4 4 4 1 4 5 5 4 4 3 3 3 3 3 2 2 3 1 1 2 1 2 1 2 1 2
4 3 2 1 3 1 4 4 1 3 3 3 3 3 2 2 1 1 2 3 2 2 3 3 2 2 4 3 3 4 2 3 2 3 4 3 3 3 4 4 4 4 4 4 3 2 2 1 0 2 4 6 4 5
3 3 3 3 1 1 2 3 2 3 2 2 2 2 2 2 2 3 3 3 3 4 4 4 4 2 2 3 3 3 4 3 3 3 5 4 2 2 2 4 4 4 5 5 4 3 3 2 4 6 6 11 11 9
4 2 2 3 3 2 2 2 2 2 2 2 0 1 1 1 1 2 2 1 2 3 4 4 4 3 2 2 6 5 4 3 4 4 5 5 4 4 4 4 3 2 5 5 5 7 10 10 6 5 9 12 10 10
Wind_Direction
208 211 210 209 214 218 222 225 223 229 225 231 241 250 269 262 242 125 259 190 143 238 275 225 248 234 317 198 178 277 27 349 44 84 142 232 199 268 323 279 279 182 160 201 109 161 267 354 334 226 228 260 146 151
207 209 210 208 210 215 214 218 214 217 216 220 229 235 250 251 239 134 287 300 94 215 245 241 236 234 202 199 113 300 198 221 195 96 208 97 270 346 162 277 334 274 185 191 176 215 223 238 190 256 207 248 161 134
215 208 210 211 209 211 210 210 215 210 208 209 222 234 244 245 235 169 203 306 32 338 297 357 272 283 238 220 190 167 278 204 156 165 161 179 223 124 208 247 277 299 143 244 68 280 234 237 257 224 201 201 165 160
217 213 210 212 207 208 210 208 210 207 207 201 209 229 249 254 215 155 175 150 105 244 283 284 321 299 204 188 186 199 171 47 103 87 119 140 160 160 224 238 192 211 4 250 270 288 301 257 236 220 186 147 120 132
218 218 216 215 211 206 204 210 204 202 196 200 206 212 204 131 134 121 195 208 193 227 259 284 307 278 294 175 169 163 146 133 113 65 113 227 227 103 258 341 242 190 215 172 227 247 212 251 242 182 163 175 124 127
219 216 215 216 211 205 198 199 199 195 188 195 201 194 163 144 113 92 3 348 203 192 317 304 286 300 318 141 148 148 152 111 115 144 212 250 254 121 165 250 245 223 210 175 215 231 220 261 201 139 138 130 101 102
219 219 218 214 210 202 194 189 189 188 181 188 185 168 152 138 113 158 184 208 38 319 161 311 313 286 314 103 49 86 67 125 132 144 212 206 255 131 196 245 243 230 236 252 240 217 271 204 172 177 141 139 115 112
222 220 219 213 207 194 183 179 180 173 170 176 167 144 130 129 41 319 251 229 153 93 84 278 275 333 337 38 104 84 99 33 330 204 39 196 341 114 259 246 269 263 263 264 252 206 196 126 112 106 114 122 118 140
224 219 217 207 199 180 174 171 164 160 163 153 128 118 90 110 168 237 121 117 86 126 187 203 247 265 347 69 60 43 80 200 167 201 236 106 216 229 232 236 255 250 220 289 62 105 125 136 142 144 139 127 156 179
229 220 212 200 187 173 165 156 151 153 138 124 100 121 192 219 196 133 13 48 24 323 48 221 199 261 59 16 89 338 28 242 254 244 119 182 252 255 254 236 232 255 209 181 116 109 131 119 125 134 136 178 168 226
224 212 200 184 173 159 148 146 145 133 117 91 131 162 213 110 68 46 124 141 183 259 222 234 188 215 279 138 202 193 190 236 253 262 145 248 274 260 317 300 250 233 184 193 358 122 123 141 136 150 124 182 204 115
216 203 187 170 152 145 147 144 141 125 143 171 154 118 102 69 54 151 202 160 190 229 213 193 216 193 261 118 108 323 225 47 250 188 176 260 252 282 311 7 12 238 144 129 120 132 127 133 128 132 167 192 118 35
198 174 154 146 142 145 144 141 126 123 128 127 108 99 110 168 147 195 194 212 220 209 206 201 98 185 51 70 57 81 204 239 360 39 233 230 267 299 324 54 66 71 84 110 136 117 116 127 147 158 172 98 85 73
150 142 140 139 143 142 134 129 137 148 124 137 144 125 171 195 221 196 192 193 227 151 161 174 160 155 194 86 137 145 241 19 313 283 253 282 293 128 339 278 173 154 149 157 146 136 147 150 171 154 122 108 112 88
127 131 134 142 141 134 121 121 113 81 119 133 118 172 199 223 236 225 215 250 246 134 119 66 41 96 265 154 200 4 243 256 212 231 248 304 316 289 131 149 284 345 148 148 152 141 144 154 152 143 120 117 124 129
116 107 113 120 129 125 118 107 65 90 71 103 172 137 212 127 260 204 184 175 181 110 86 59 102 80 217 203 186 224 157 227 246 233 248 308 313 306 138 279 272 233 177 144 136 143 149 143 157 168 126 134 162 164
74 55 115 114 117 117 101 82 75 60 87 237 269 232 184 194 194 187 168 201 160 97 157 114 121 209 38 249 250 192 205 224 219 274 266 268 264 234 308 248 267 136 123 137 126 139 148 142 142 121 145 201 186 197
97 116 117 118 112 102 54 61 87 128 215 240 113 264 184 189 179 22 240 158 111 115 119 195 138 125 221 231 267 253 309 284 291 286 285 290 279 171 207 237 115 122 132 127 126 127 134 155 178 208 209 200 173 228
118 121 120 110 121 104 103 54 107 153 237 236 249 286 196 214 227 237 128 90 115 124 112 52 143 212 235 222 207 226 277 291 280 295 278 291 197 102 287 72 130 125 122 122 133 151 168 185 209 201 194 164 200 212
112 110 105 99 110 87 94 24 79 109 268 260 347 15 221 215 177 132 134 144 126 114 96 187 217 218 213 223 191 238 252 241 265 297 305 155 187 176 208 169 151 119 104 94 92 108 71 264 271 239 192 188 199 229
80 60 55 67 45 62 108 129 77 198 239 68 263 330 301 17 111 149 206 146 80 203 235 219 232 240 237 164 195 236 251 222 229 223 266 351 358 161 123 122 106 107 120 136 126 96 88 99 260 262 192 186 209 161
79 92 67 19 59 129 91 202 147 198 91 241 355 46 360 350 242 228 146 129 220 229 203 205 239 267 279 239 211 218 237 218 212 212 51 78 130 124 160 140 122 139 155 164 150 159 191 249 166 149 137 150 152 156
86 54 42 57 91 62 261 73 79 160 102 291 17 16 332 306 237 165 215 206 250 250 237 226 254 246 256 288 345 317 278 167 183 203 188 235 187 140 132 173 153 149 155 218 168 180 190 157 230 157 153 149 144 109
320 54 138 129 94 120 114 121 253 167 99 56 91 306 243 254 335 67 252 238 274 309 343 338 344 324 323 335 272 255 245 194 199 204 190 179 135 143 178 185 156 166 169 146 152 157 200 261 282 150 166 179 184 186
57 315 96 327 276 115 159 169 173 101 243 125 349 328 302 26 329 192 149 292 343 340 301 302 300 276 258 278 283 271 249 176 160 157 194 148 110 71 79 88 124 154 141 128 176 152 166 205 110 102 133 167 179 190
94 225 143 183 187 184 185 159 196 182 148 170 205 195 61 71 340 236 247 304 282 275 296 299 299 317 342 270 305 15 171 151 122 118 198 165 159 150 157 143 135 243 198 161 140 144 169 273 116 122 174 163 169 164
24 208 225 227 230 89 22 281 124 132 172 186 173 175 173 203 247 178 258 338 282 277 279 259 284 327 317 323 318 313 211 164 183 173 158 165 140 157 148 159 169 219 192 190 212 194 168 196 242 178 167 211 185 179
250 260 148 178 116 169 169 177 220 218 107 127 97 172 197 188 173 286 261 312 294 292 296 274 147 208 268 288 293 57 70 92 90 91 83 65 70 125 156 157 114 140 138 162 158 122 128 156 148 196 47 133 202 198
257 256 116 140 200 211 240 318 29 21 359 99 131 128 116 69 11 335 324 311 297 325 25 347 346 357 351 28 61 69 78 102 104 101 102 111 77 349 46 130 124 115 107 100 54 109 142 135 127 111 125 181 196 180
248 177 156 69 115 195 160 296 169 160 55 101 122 91 68 83 15 335 340 334 3 340 319 306 291 344 34 86 89 54 10 37 141 137 148 175 214 231 196 193 182 168 157 148 144 125 51 122 95 33 335 280 182 191
153 102 95 124 91 57 285 320 61 70 59 38 32 85 113 147 298 20 6 334 336 314 337 359 118 156 132 128 126 117 43 349 342 203 183 166 172 185 211 222 205 178 178 183 201 212 228 263 312 305 325 347 289 215
132 133 164 98 120 185 337 36 68 73 43 54 51 66 51 50 27 345 338 339 352 32 24 17 40 14 324 131 108 76 81 72 36 64 124 118 81 350 258 212 198 175 184 191 190 216 229 244 70 75 52 34 15 8
87 57 64 116 127 176 232 142 121 104 71 97 100 132 89 122 151 297 301 48 355 339 336 329 327 347 86 126 117 108 95 90 75 58 67 72 61 33 32 38 46 149 132 108 75 84 89 93 92 99 81 73 43 11